| time (UTC) | temp C | wind direction | speed KPH | gust KPH | rain 1hr cm | rain 24hr cm | rain mn cm | humidity % | barometer mb |
| 20260506210532 | 13 | 315 | 22.5 | 38.6 | 0.00 | 0.00 | 0.00 | 30 | 1017.8 |
| 20260506210041 | 13 | 319 | 27.4 | 38.6 | 0.00 | 0.00 | 0.00 | 32 | 1017.8 |
| 20260506205547 | 13 | 311 | 19.3 | 38.6 | 0.00 | 0.00 | 0.00 | 32 | 1017.7 |
| 20260506205058 | 13 | 300 | 24.1 | 38.6 | 0.00 | 0.00 | 0.00 | 34 | 1017.7 |
| 20260506204550 | 13 | 291 | 17.7 | 35.4 | 0.00 | 0.00 | 0.00 | 35 | 1017.8 |
| 20260506204052 | 13 | 296 | 16.1 | 33.8 | 0.00 | 0.00 | 0.00 | 36 | 1017.7 |
| 20260506203546 | 13 | 302 | 22.5 | 33.8 | 0.00 | 0.00 | 0.00 | 35 | 1017.8 |
| 20260506203033 | 13 | 319 | 19.3 | 33.8 | 0.00 | 0.00 | 0.00 | 35 | 1017.8 |
| 20260506202541 | 14 | 306 | 20.9 | 40.2 | 0.00 | 0.00 | 0.00 | 34 | 1017.9 |
| 20260506202047 | 14 | 297 | 16.1 | 37.0 | 0.00 | 0.00 | 0.00 | 34 | 1017.7 |
| 20260506201555 | 13 | 291 | 22.5 | 37.0 | 0.00 | 0.00 | 0.00 | 35 | 1017.7 |
| 20260506201100 | 13 | 330 | 24.1 | 35.4 | 0.00 | 0.00 | 0.00 | 35 | 1017.7 |
| 20260506200504 | 13 | 311 | 24.1 | 37.0 | 0.00 | 0.00 | 0.00 | 35 | 1017.8 |
| 20260506200105 | 14 | 315 | 22.5 | 37.0 | 0.00 | 0.00 | 0.00 | 34 | 1017.8 |
| 20260506195604 | 14 | 285 | 24.1 | 41.8 | 0.00 | 0.00 | 0.00 | 35 | 1017.6 |
| 20260506195057 | 14 | 312 | 27.4 | 41.8 | 0.00 | 0.00 | 0.00 | 33 | 1017.6 |
| 20260506194608 | 14 | 319 | 29.0 | 45.1 | 0.00 | 0.00 | 0.00 | 31 | 1017.6 |
| 20260506194004 | 14 | 322 | 30.6 | 45.1 | 0.00 | 0.00 | 0.00 | 29 | 1017.6 |
| 20260506193559 | 15 | 325 | 25.7 | 45.1 | 0.00 | 0.00 | 0.00 | 31 | 1017.7 |
| 20260506193002 | 15 | 287 | 22.5 | 53.1 | 0.00 | 0.00 | 0.00 | 30 | 1017.6 |
| 20260506192557 | 14 | 339 | 27.4 | 53.1 | 0.00 | 0.00 | 0.00 | 34 | 1017.5 |
| 20260506192051 | 14 | 302 | 24.1 | 41.8 | 0.00 | 0.00 | 0.00 | 33 | 1017.4 |
| 20260506191607 | 14 | 325 | 24.1 | 41.8 | 0.00 | 0.00 | 0.00 | 34 | 1017.6 |
| 20260506191105 | 14 | 333 | 25.7 | 41.8 | 0.00 | 0.00 | 0.00 | 35 | 1017.5 |
| 20260506190505 | 13 | 309 | 20.9 | 38.6 | 0.00 | 0.00 | 0.00 | 39 | 1017.5 |
| 20260506190100 | 12 | 323 | 24.1 | 45.1 | 0.00 | 0.00 | 0.00 | 42 | 1017.7 |
| 20260506185501 | 12 | 310 | 24.1 | 37.0 | 0.00 | 0.00 | 0.00 | 44 | 1017.8 |
| 20260506185058 | 11 | 360 | 22.5 | 37.0 | 0.00 | 0.00 | 0.00 | 46 | 1017.9 |
| 20260506184551 | 10 | 349 | 25.7 | 45.1 | 0.00 | 0.00 | 0.00 | 49 | 1018.0 |
| 20260506184056 | 10 | 320 | 25.7 | 46.7 | 0.00 | 0.00 | 0.00 | 52 | 1018.1 |
| 20260506183602 | 10 | 338 | 27.4 | 46.7 | 0.00 | 0.00 | 0.00 | 52 | 1018.4 |
| 20260506183006 | 10 | 341 | 32.2 | 53.1 | 0.00 | 0.00 | 0.00 | 51 | 1018.6 |
| 20260506182602 | 10 | 316 | 32.2 | 56.3 | 0.00 | 0.00 | 0.00 | 50 | 1018.6 |
| 20260506182002 | 10 | 344 | 33.8 | 57.9 | 0.00 | 0.00 | 0.00 | 50 | 1018.4 |
| 20260506181602 | 10 | 5 | 32.2 | 57.9 | 0.00 | 0.00 | 0.00 | 51 | 1018.5 |
| 20260506181104 | 10 | 338 | 35.4 | 53.1 | 0.00 | 0.00 | 0.00 | 51 | 1018.3 |
| 20260506180507 | 11 | 342 | 29.0 | 56.3 | 0.00 | 0.00 | 0.00 | 50 | 1018.2 |
| 20260506180116 | 12 | 323 | 32.2 | 53.1 | 0.00 | 0.00 | 0.00 | 48 | 1018.1 |
| 20260506175558 | 11 | 319 | 35.4 | 53.1 | 0.00 | 0.00 | 0.00 | 48 | 1017.9 |
| 20260506175045 | 12 | 311 | 33.8 | 54.7 | 0.00 | 0.00 | 0.00 | 48 | 1017.9 |
| 20260506174553 | 12 | 329 | 24.1 | 57.9 | 0.00 | 0.00 | 0.00 | 44 | 1017.8 |
| 20260506174059 | 12 | 306 | 35.4 | 57.9 | 0.00 | 0.00 | 0.00 | 43 | 1017.5 |
| 20260506173502 | 13 | 283 | 22.5 | 46.7 | 0.00 | 0.00 | 0.00 | 36 | 1017.4 |
| 20260506173134 | 14 | 282 | 20.9 | 37.0 | 0.00 | 0.00 | 0.00 | 35 | 1016.9 |
| 20260506172500 | 15 | 279 | 19.3 | 33.8 | 0.00 | 0.00 | 0.00 | 34 | 1017.0 |
| 20260506172056 | 14 | 289 | 17.7 | 33.8 | 0.00 | 0.00 | 0.00 | 35 | 1016.8 |
| 20260506171547 | 13 | 300 | 12.9 | 24.1 | 0.00 | 0.00 | 0.00 | 37 | 1016.9 |
| 20260506171055 | 14 | 273 | 12.9 | 19.3 | 0.00 | 0.00 | 0.00 | 38 | 1016.9 |
| 20260506170548 | 14 | 278 | 8.0 | 22.5 | 0.00 | 0.00 | 0.00 | 37 | 1016.9 |
| 20260506170052 | 14 | 226 | 11.3 | 22.5 | 0.00 | 0.00 | 0.00 | 38 | 1016.8 |
| 20260506165542 | 13 | 236 | 8.0 | 25.7 | 0.00 | 0.00 | 0.00 | 39 | 1016.9 |
| 20260506165033 | 13 | 299 | 17.7 | 29.0 | 0.00 | 0.00 | 0.00 | 40 | 1016.8 |
| 20260506164540 | 13 | 281 | 12.9 | 29.0 | 0.00 | 0.00 | 0.00 | 40 | 1016.8 |
| 20260506164048 | 13 | 334 | 12.9 | 20.9 | 0.00 | 0.00 | 0.00 | 40 | 1016.8 |
| 20260506163555 | 12 | 229 | 12.9 | 30.6 | 0.00 | 0.00 | 0.00 | 41 | 1017.0 |
| 20260506163047 | 12 | 296 | 11.3 | 30.6 | 0.00 | 0.00 | 0.00 | 43 | 1016.9 |
| 20260506162555 | 12 | 242 | 9.7 | 16.1 | 0.00 | 0.00 | 0.00 | 44 | 1017.1 |
| 20260506162059 | 12 | 292 | 6.4 | 14.5 | 0.00 | 0.00 | 0.00 | 45 | 1017.0 |
| 20260506161502 | 12 | 242 | 6.4 | 17.7 | 0.00 | 0.00 | 0.00 | 46 | 1017.1 |
| 20260506161058 | 11 | 242 | 9.7 | 19.3 | 0.00 | 0.00 | 0.00 | 47 | 1017.1 |
| 20260506160502 | 11 | 231 | 12.9 | 20.9 | 0.00 | 0.00 | 0.00 | 46 | 1017.2 |
| 20260506160057 | 11 | 296 | 6.4 | 20.9 | 0.00 | 0.00 | 0.00 | 47 | 1017.2 |
| 20260506155604 | 11 | 257 | 11.3 | 20.9 | 0.00 | 0.00 | 0.00 | 46 | 1017.2 |
| 20260506155055 | 11 | 240 | 11.3 | 20.9 | 0.00 | 0.00 | 0.00 | 46 | 1017.2 |
| 20260506154601 | 10 | 267 | 8.0 | 19.3 | 0.00 | 0.00 | 0.00 | 48 | 1017.1 |
| 20260506154004 | 10 | 259 | 3.2 | 12.9 | 0.00 | 0.00 | 0.00 | 49 | 1017.1 |
| 20260506153601 | 10 | 301 | 1.6 | 12.9 | 0.00 | 0.00 | 0.00 | 49 | 1017.1 |
| 20260506153104 | 10 | 313 | 4.8 | 16.1 | 0.00 | 0.00 | 0.00 | 48 | 1017.1 |
| 20260506152555 | 11 | 286 | 8.0 | 16.1 | 0.00 | 0.00 | 0.00 | 47 | 1017.1 |
| 20260506152045 | 10 | 259 | 1.6 | 12.9 | 0.00 | 0.00 | 0.00 | 49 | 1017.0 |
| 20260506151553 | 11 | 290 | 3.2 | 9.7 | 0.00 | 0.00 | 0.00 | 48 | 1016.9 |
| 20260506151059 | 11 | 252 | 4.8 | 9.7 | 0.00 | 0.00 | 0.00 | 48 | 1016.8 |
| 20260506150502 | 11 | 250 | 3.2 | 11.3 | 0.00 | 0.00 | 0.00 | 48 | 1016.9 |
| 20260506150100 | 11 | 205 | 3.2 | 11.3 | 0.00 | 0.00 | 0.00 | 48 | 1016.7 |
| 20260506145500 | 11 | 284 | 1.6 | 8.0 | 0.00 | 0.00 | 0.00 | 49 | 1016.8 |
| 20260506145056 | 11 | 200 | 3.2 | 8.0 | 0.00 | 0.00 | 0.00 | 50 | 1016.9 |
| 20260506144609 | 10 | 211 | 4.8 | 8.0 | 0.00 | 0.00 | 0.00 | 52 | 1016.9 |
| 20260506144053 | 10 | 208 | 3.2 | 6.4 | 0.00 | 0.00 | 0.00 | 52 | 1016.9 |
| 20260506143543 | 9 | 235 | 1.6 | 6.4 | 0.00 | 0.00 | 0.00 | 54 | 1016.9 |
| 20260506143052 | 9 | 147 | 1.6 | 6.4 | 0.00 | 0.00 | 0.00 | 56 | 1016.8 |
| 20260506142557 | 8 | 161 | 3.2 | 6.4 | 0.00 | 0.00 | 0.00 | 57 | 1016.8 |
| 20260506142106 | 8 | 134 | 3.2 | 9.7 | 0.00 | 0.00 | 0.00 | 58 | 1016.8 |
| 20260506141506 | 8 | 163 | 4.8 | 11.3 | 0.00 | 0.00 | 0.00 | 59 | 1016.8 |
| 20260506141014 | 7 | 119 | 4.8 | 11.3 | 0.00 | 0.00 | 0.00 | 61 | 1016.8 |
| 20260506140520 | 7 | 154 | 8.0 | 11.3 | 0.00 | 0.00 | 0.00 | 62 | 1016.9 |
| 20260506140059 | 7 | 196 | 6.4 | 11.3 | 0.00 | 0.00 | 0.00 | 62 | 1016.9 |
| 20260506135501 | 7 | 127 | 6.4 | 11.3 | 0.00 | 0.00 | 0.00 | 62 | 1016.9 |
| 20260506135012 | 7 | 117 | 3.2 | 12.9 | 0.00 | 0.00 | 0.00 | 64 | 1016.7 |
| 20260506134515 | 7 | 117 | 4.8 | 11.3 | 0.00 | 0.00 | 0.00 | 65 | 1016.6 |
| 20260506134004 | 6 | 131 | 4.8 | 9.7 | 0.00 | 0.00 | 0.00 | 66 | 1016.7 |
| 20260506133512 | 6 | 131 | 4.8 | 9.7 | 0.00 | 0.00 | 0.00 | 68 | 1016.7 |
| 20260506133002 | 6 | 119 | 3.2 | 9.7 | 0.00 | 0.00 | 0.00 | 69 | 1016.6 |
| 20260506132557 | 6 | 127 | 3.2 | 9.7 | 0.00 | 0.00 | 0.00 | 70 | 1016.6 |
| 20260506132001 | 6 | 113 | 4.8 | 9.7 | 0.00 | 0.00 | 0.00 | 70 | 1016.4 |
| 20260506131558 | 6 | 112 | 3.2 | 6.4 | 0.00 | 0.00 | 0.00 | 71 | 1016.5 |
| 20260506131103 | 6 | 110 | 3.2 | 4.8 | 0.00 | 0.00 | 0.00 | 71 | 1016.5 |
| 20260506130506 | 5 | 119 | 1.6 | 4.8 | 0.00 | 0.00 | 0.00 | 72 | 1016.3 |
| 20260506130017 | 5 | 113 | 3.2 | 4.8 | 0.00 | 0.00 | 0.00 | 72 | 1016.3 |
| 20260506125504 | 5 | 119 | 3.2 | 4.8 | 0.00 | 0.00 | 0.00 | 72 | 1016.2 |
| 20260506125011 | 5 | 119 | 1.6 | 4.8 | 0.00 | 0.00 | 0.00 | 73 | 1016.2 |
| 20260506124501 | 5 | 119 | 1.6 | 4.8 | 0.00 | 0.00 | 0.00 | 73 | 1016.2 |
| 20260506124007 | 5 | 116 | 1.6 | 4.8 | 0.00 | 0.00 | 0.00 | 73 | 1016.1 |
| 20260506123601 | 5 | 102 | 1.6 | 4.8 | 0.00 | 0.00 | 0.00 | 73 | 1016.1 |
| 20260506123052 | 5 | 126 | 1.6 | 3.2 | 0.00 | 0.00 | 0.00 | 74 | 1016.0 |
| 20260506122600 | 5 | 126 | 1.6 | 4.8 | 0.00 | 0.00 | 0.00 | 74 | 1015.9 |
| 20260506122050 | 5 | 126 | 1.6 | 4.8 | 0.00 | 0.00 | 0.00 | 74 | 1015.9 |
| 20260506121539 | 5 | 109 | 3.2 | 4.8 | 0.00 | 0.00 | 0.00 | 74 | 1015.9 |
| 20260506121046 | 5 | 109 | 1.6 | 3.2 | 0.00 | 0.00 | 0.00 | 74 | 1015.8 |
| 20260506120552 | 5 | 109 | 1.6 | 3.2 | 0.00 | 0.00 | 0.00 | 73 | 1015.8 |
| 20260506120115 | 5 | 109 | 0.0 | 3.2 | 0.00 | 0.00 | 0.00 | 73 | 1015.8 |
| 20260506115553 | 5 | 109 | 0.0 | 0.0 | 0.00 | 0.00 | 0.00 | 73 | 1015.9 |
| 20260506115059 | 5 | 109 | 0.0 | 0.0 | 0.00 | 0.00 | 0.00 | 73 | 1015.8 |
| 20260506114549 | 5 | 109 | 0.0 | 3.2 | 0.00 | 0.00 | 0.00 | 74 | 1015.8 |
| 20260506114038 | 4 | 109 | 0.0 | 3.2 | 0.00 | 0.00 | 0.00 | 74 | 1015.8 |
| 20260506113545 | 4 | 109 | 0.0 | 3.2 | 0.00 | 0.00 | 0.00 | 75 | 1015.8 |
| 20260506113036 | 4 | 109 | 1.6 | 3.2 | 0.00 | 0.00 | 0.00 | 75 | 1015.8 |
| 20260506112540 | 4 | 109 | 1.6 | 3.2 | 0.00 | 0.00 | 0.00 | 75 | 1015.7 |
| 20260506112046 | 4 | 109 | 3.2 | 3.2 | 0.00 | 0.00 | 0.00 | 74 | 1015.7 |
| 20260506111538 | 4 | 109 | 1.6 | 3.2 | 0.00 | 0.00 | 0.00 | 74 | 1015.6 |
| 20260506111048 | 4 | 109 | 1.6 | 4.8 | 0.00 | 0.00 | 0.00 | 74 | 1015.5 |
| 20260506110551 | 4 | 109 | 3.2 | 4.8 | 0.00 | 0.00 | 0.00 | 74 | 1015.4 |
| 20260506110100 | 4 | 109 | 3.2 | 4.8 | 0.00 | 0.00 | 0.00 | 74 | 1015.4 |
| 20260506105551 | 4 | 109 | 3.2 | 4.8 | 0.00 | 0.00 | 0.00 | 74 | 1015.4 |
| 20260506105102 | 4 | 109 | 3.2 | 4.8 | 0.00 | 0.00 | 0.00 | 72 | 1015.4 |
| 20260506104604 | 4 | 111 | 3.2 | 4.8 | 0.00 | 0.00 | 0.00 | 72 | 1015.3 |
| 20260506104014 | 5 | 126 | 3.2 | 4.8 | 0.00 | 0.00 | 0.00 | 72 | 1015.4 |
| 20260506103604 | 5 | 126 | 1.6 | 6.4 | 0.00 | 0.00 | 0.00 | 73 | 1015.3 |
| 20260506103006 | 5 | 126 | 3.2 | 6.4 | 0.00 | 0.00 | 0.00 | 73 | 1015.3 |
| 20260506102602 | 5 | 129 | 3.2 | 6.4 | 0.00 | 0.00 | 0.00 | 73 | 1015.3 |
| 20260506102006 | 5 | 132 | 3.2 | 6.4 | 0.00 | 0.00 | 0.00 | 73 | 1015.3 |
| 20260506101601 | 5 | 131 | 3.2 | 6.4 | 0.00 | 0.00 | 0.00 | 73 | 1015.3 |
| 20260506101002 | 5 | 111 | 3.2 | 6.4 | 0.00 | 0.00 | 0.00 | 73 | 1015.3 |
| 20260506100513 | 5 | 109 | 3.2 | 4.8 | 0.00 | 0.00 | 0.00 | 73 | 1015.3 |
| 20260506100105 | 5 | 112 | 3.2 | 6.4 | 0.00 | 0.00 | 0.00 | 73 | 1015.3 |
| 20260506095503 | 5 | 115 | 4.8 | 6.4 | 0.00 | 0.00 | 0.00 | 73 | 1015.2 |
| 20260506095057 | 5 | 126 | 3.2 | 6.4 | 0.00 | 0.00 | 0.00 | 72 | 1015.3 |
| 20260506094615 | 5 | 110 | 3.2 | 4.8 | 0.00 | 0.00 | 0.00 | 72 | 1015.4 |
| 20260506094100 | 5 | 134 | 3.2 | 4.8 | 0.00 | 0.00 | 0.00 | 72 | 1015.3 |
| 20260506093602 | 5 | 129 | 1.6 | 3.2 | 0.00 | 0.00 | 0.00 | 71 | 1015.3 |
| 20260506093004 | 5 | 159 | 0.0 | 3.2 | 0.00 | 0.00 | 0.00 | 70 | 1015.3 |
| 20260506092559 | 5 | 159 | 1.6 | 3.2 | 0.00 | 0.00 | 0.00 | 70 | 1015.4 |
| 20260506092105 | 5 | 159 | 1.6 | 3.2 | 0.00 | 0.00 | 0.00 | 70 | 1015.3 |
| 20260506091556 | 6 | 159 | 0.0 | 3.2 | 0.00 | 0.00 | 0.00 | 69 | 1015.4 |
| 20260506091048 | 6 | 159 | 1.6 | 3.2 | 0.00 | 0.00 | 0.00 | 69 | 1015.3 |
| 20260506090554 | 6 | 159 | 1.6 | 3.2 | 0.00 | 0.00 | 0.00 | 69 | 1015.4 |
| 20260506085503 | 6 | 155 | 3.2 | 4.8 | 0.00 | 0.00 | 0.00 | 67 | 1015.4 |
| 20260506085102 | 6 | 144 | 3.2 | 4.8 | 0.00 | 0.00 | 0.00 | 67 | 1015.4 |
| 20260506084605 | 6 | 161 | 3.2 | 4.8 | 0.00 | 0.00 | 0.00 | 66 | 1015.3 |
| 20260506084056 | 6 | 167 | 1.6 | 4.8 | 0.00 | 0.00 | 0.00 | 66 | 1015.3 |
| 20260506083550 | 6 | 153 | 3.2 | 4.8 | 0.00 | 0.00 | 0.00 | 65 | 1015.3 |
| 20260506083100 | 6 | 153 | 1.6 | 4.8 | 0.00 | 0.00 | 0.00 | 65 | 1015.3 |
| 20260506082602 | 7 | 153 | 3.2 | 4.8 | 0.00 | 0.00 | 0.00 | 65 | 1015.3 |
| 20260506082103 | 7 | 149 | 1.6 | 4.8 | 0.00 | 0.00 | 0.00 | 64 | 1015.4 |
| 20260506081554 | 7 | 153 | 1.6 | 3.2 | 0.00 | 0.00 | 0.00 | 64 | 1015.4 |
| 20260506081046 | 7 | 153 | 1.6 | 3.2 | 0.00 | 0.00 | 0.00 | 63 | 1015.4 |
| 20260506080552 | 7 | 157 | 1.6 | 4.8 | 0.00 | 0.00 | 0.00 | 63 | 1015.4 |
| 20260506080109 | 7 | 164 | 1.6 | 4.8 | 0.00 | 0.00 | 0.00 | 63 | 1015.5 |
| 20260506073103 | 7 | 207 | 6.4 | 9.7 | 0.00 | 0.00 | 0.00 | 61 | 1015.6 |
| 20260506072557 | 7 | 190 | 4.8 | 9.7 | 0.00 | 0.00 | 0.00 | 61 | 1015.7 |
| 20260506072104 | 7 | 183 | 3.2 | 9.7 | 0.00 | 0.00 | 0.00 | 61 | 1015.7 |
| 20260506071505 | 7 | 195 | 6.4 | 9.7 | 0.00 | 0.00 | 0.00 | 61 | 1015.6 |
| 20260506071009 | 8 | 192 | 4.8 | 9.7 | 0.00 | 0.00 | 0.00 | 61 | 1015.6 |
| 20260506070516 | 8 | 199 | 1.6 | 6.4 | 0.00 | 0.00 | 0.00 | 60 | 1015.6 |
| 20260506062059 | 8 | 200 | 3.2 | 9.7 | 0.00 | 0.00 | 0.00 | 58 | 1015.5 |
| 20260506061502 | 8 | 182 | 3.2 | 9.7 | 0.00 | 0.00 | 0.00 | 58 | 1015.4 |
| 20260506061058 | 8 | 188 | 4.8 | 9.7 | 0.00 | 0.00 | 0.00 | 58 | 1015.3 |
| 20260506060604 | 8 | 208 | 0.0 | 9.7 | 0.00 | 0.00 | 0.00 | 58 | 1015.4 |
| 20260506051003 | 9 | 204 | 4.8 | 9.7 | 0.00 | 0.00 | 0.00 | 60 | 1015.2 |
| 20260506050512 | 9 | 180 | 4.8 | 9.7 | 0.00 | 0.00 | 0.00 | 60 | 1015.2 |
| 20260506050109 | 9 | 122 | 1.6 | 4.8 | 0.00 | 0.00 | 0.00 | 60 | 1015.1 |
| 20260506045056 | 9 | 113 | 1.6 | 4.8 | 0.00 | 0.00 | 0.00 | 59 | 1014.8 |
| 20260506044603 | 9 | 134 | 1.6 | 4.8 | 0.00 | 0.00 | 0.00 | 58 | 1014.9 |
| 20260506044005 | 9 | 159 | 0.0 | 9.7 | 0.00 | 0.00 | 0.00 | 58 | 1014.9 |
| 20260506043601 | 9 | 149 | 4.8 | 9.7 | 0.00 | 0.00 | 0.00 | 58 | 1014.9 |
| 20260506043002 | 9 | 140 | 4.8 | 9.7 | 0.00 | 0.00 | 0.00 | 58 | 1014.8 |
| 20260506042557 | 9 | 137 | 1.6 | 6.4 | 0.00 | 0.00 | 0.00 | 57 | 1014.8 |
| 20260506042104 | 9 | 184 | 3.2 | 6.4 | 0.00 | 0.00 | 0.00 | 57 | 1014.7 |
| 20260506041556 | 9 | 218 | 1.6 | 9.7 | 0.00 | 0.00 | 0.00 | 57 | 1014.8 |
| 20260506041102 | 9 | 232 | 3.2 | 9.7 | 0.00 | 0.00 | 0.00 | 57 | 1014.7 |
| 20260506040504 | 9 | 216 | 1.6 | 8.0 | 0.00 | 0.00 | 0.00 | 57 | 1014.6 |
| 20260506040010 | 9 | 244 | 3.2 | 8.0 | 0.00 | 0.00 | 0.00 | 57 | 1014.6 |
| 20260506035606 | 10 | 269 | 3.2 | 11.3 | 0.00 | 0.00 | 0.00 | 58 | 1014.6 |
| 20260506035004 | 10 | 230 | 1.6 | 14.5 | 0.00 | 0.00 | 0.00 | 59 | 1014.5 |
| 20260506034511 | 10 | 268 | 4.8 | 22.5 | 0.00 | 0.00 | 0.00 | 59 | 1014.4 |
| 20260506034003 | 10 | 179 | 11.3 | 20.9 | 0.00 | 0.00 | 0.00 | 59 | 1014.2 |
| 20260506033509 | 9 | 159 | 11.3 | 22.5 | 0.00 | 0.00 | 0.00 | 59 | 1013.8 |
| 20260506033121 | 9 | 172 | 11.3 | 19.3 | 0.00 | 0.00 | 0.00 | 59 | 1013.6 |
| 20260506032506 | 9 | 172 | 14.5 | 25.7 | 0.00 | 0.00 | 0.00 | 59 | 1013.5 |
| 20260506032101 | 9 | 187 | 14.5 | 25.7 | 0.00 | 0.00 | 0.00 | 60 | 1013.4 |
| 20260506031553 | 9 | 178 | 16.1 | 25.7 | 0.00 | 0.00 | 0.00 | 60 | 1013.4 |
| 20260506031102 | 10 | 192 | 12.9 | 20.9 | 0.00 | 0.00 | 0.00 | 60 | 1013.3 |
| 20260506030606 | 10 | 209 | 11.3 | 19.3 | 0.00 | 0.00 | 0.00 | 59 | 1013.1 |
| 20260506030008 | 10 | 201 | 12.9 | 20.9 | 0.00 | 0.00 | 0.00 | 56 | 1012.9 |
| 20260506025605 | 10 | 167 | 9.7 | 19.3 | 0.00 | 0.00 | 0.00 | 54 | 1012.9 |
| 20260506025007 | 10 | 163 | 11.3 | 33.8 | 0.00 | 0.00 | 0.00 | 54 | 1013.0 |
| 20260506024616 | 10 | 196 | 12.9 | 33.8 | 0.00 | 0.00 | 0.00 | 54 | 1012.9 |
| 20260506024005 | 10 | 179 | 17.7 | 33.8 | 0.00 | 0.00 | 0.00 | 50 | 1012.6 |
| 20260506023600 | 11 | 176 | 22.5 | 33.8 | 0.00 | 0.00 | 0.00 | 48 | 1012.4 |
| 20260506023107 | 11 | 179 | 19.3 | 29.0 | 0.00 | 0.00 | 0.00 | 48 | 1012.8 |
| 20260506022557 | 11 | 221 | 14.5 | 33.8 | 0.00 | 0.00 | 0.00 | 45 | 1012.8 |
| 20260506022046 | 10 | 230 | 16.1 | 32.2 | 0.00 | 0.00 | 0.00 | 49 | 1013.0 |
| 20260506021559 | 9 | 199 | 12.9 | 30.6 | 0.00 | 0.00 | 0.00 | 63 | 1013.1 |
| 20260506021104 | 9 | 159 | 17.7 | 32.2 | 0.00 | 0.00 | 0.00 | 66 | 1013.0 |
| 20260506020505 | 9 | 180 | 20.9 | 33.8 | 0.00 | 0.00 | 0.00 | 66 | 1012.9 |
| 20260506020012 | 10 | 198 | 19.3 | 27.4 | 0.00 | 0.00 | 0.00 | 62 | 1013.0 |
| 20260506015503 | 10 | 209 | 14.5 | 25.7 | 0.00 | 0.00 | 0.00 | 59 | 1013.1 |
| 20260506015010 | 10 | 227 | 11.3 | 24.1 | 0.00 | 0.00 | 0.00 | 56 | 1013.1 |
| 20260506014603 | 10 | 167 | 9.7 | 20.9 | 0.00 | 0.00 | 0.00 | 54 | 1013.2 |
| 20260506014004 | 11 | 240 | 12.9 | 30.6 | 0.00 | 0.00 | 0.00 | 53 | 1013.3 |
| 20260506013600 | 11 | 202 | 11.3 | 30.6 | 0.00 | 0.00 | 0.00 | 52 | 1013.1 |
| 20260506013002 | 11 | 198 | 16.1 | 32.2 | 0.00 | 0.00 | 0.00 | 54 | 1013.1 |
| 20260506012509 | 11 | 196 | 16.1 | 33.8 | 0.00 | 0.00 | 0.00 | 54 | 1012.9 |
| 20260506012104 | 11 | 194 | 16.1 | 29.0 | 0.00 | 0.00 | 0.00 | 54 | 1012.9 |
| 20260506011521 | 11 | 188 | 14.5 | 37.0 | 0.00 | 0.00 | 0.00 | 53 | 1012.8 |
| 20260506011103 | 11 | 178 | 17.7 | 37.0 | 0.00 | 0.00 | 0.00 | 52 | 1012.7 |
| 20260506010504 | 12 | 200 | 24.1 | 37.0 | 0.00 | 0.00 | 0.00 | 50 | 1012.6 |
| 20260506010120 | 12 | 164 | 16.1 | 32.2 | 0.00 | 0.00 | 0.00 | 52 | 1012.5 |
| 20260506005551 | 12 | 162 | 19.3 | 33.8 | 0.00 | 0.00 | 0.00 | 53 | 1012.3 |
| 20260506005101 | 12 | 162 | 19.3 | 33.8 | 0.00 | 0.00 | 0.00 | 53 | 1012.3 |
| 20260506004549 | 12 | 160 | 20.9 | 33.8 | 0.00 | 0.00 | 0.00 | 51 | 1012.1 |
| 20260506004055 | 12 | 182 | 14.5 | 30.6 | 0.00 | 0.00 | 0.00 | 48 | 1012.1 |
| 20260506003601 | 12 | 173 | 17.7 | 30.6 | 0.00 | 0.00 | 0.00 | 48 | 1012.0 |
| 20260506003004 | 12 | 194 | 14.5 | 27.4 | 0.00 | 0.00 | 0.00 | 45 | 1011.8 |
| 20260506002559 | 12 | 173 | 16.1 | 27.4 | 0.00 | 0.00 | 0.00 | 47 | 1011.9 |
| 20260506002002 | 12 | 210 | 17.7 | 40.2 | 0.00 | 0.00 | 0.00 | 50 | 1011.9 |
| 20260506001601 | 12 | 163 | 19.3 | 40.2 | 0.00 | 0.00 | 0.00 | 52 | 1011.7 |
| 20260506001104 | 12 | 206 | 12.9 | 29.0 | 0.00 | 0.00 | 0.00 | 41 | 1011.8 |
| 20260506000558 | 12 | 160 | 11.3 | 27.4 | 0.00 | 0.00 | 0.00 | 45 | 1011.8 |
| 20260506000054 | 12 | 178 | 14.5 | 32.2 | 0.00 | 0.00 | 0.00 | 45 | 1011.8 |
| 20260505235552 | 13 | 194 | 16.1 | 32.2 | 0.00 | 0.00 | 0.00 | 45 | 1011.9 |
| 20260505235059 | 13 | 205 | 16.1 | 37.0 | 0.00 | 0.00 | 0.00 | 44 | 1011.9 |
| 20260505234502 | 13 | 212 | 20.9 | 37.0 | 0.00 | 0.00 | 0.00 | 42 | 1011.7 |
| 20260505234012 | 14 | 188 | 16.1 | 33.8 | 0.00 | 0.00 | 0.00 | 42 | 1011.7 |
| 20260505233604 | 15 | 200 | 16.1 | 32.2 | 0.00 | 0.00 | 0.00 | 39 | 1011.8 |
| 20260505233051 | 15 | 203 | 17.7 | 32.2 | 0.00 | 0.00 | 0.00 | 39 | 1011.6 |
| 20260505232542 | 15 | 223 | 19.3 | 35.4 | 0.00 | 0.00 | 0.00 | 36 | 1011.4 |
| 20260505232050 | 16 | 178 | 14.5 | 35.4 | 0.00 | 0.00 | 0.00 | 35 | 1011.5 |
| 20260505231556 | 16 | 152 | 12.9 | 35.4 | 0.00 | 0.00 | 0.00 | 33 | 1011.4 |
| 20260505231103 | 16 | 148 | 16.1 | 29.0 | 0.00 | 0.00 | 0.00 | 33 | 1011.3 |
| 20260505230555 | 17 | 188 | 17.7 | 27.4 | 0.00 | 0.00 | 0.00 | 31 | 1011.3 |
| 20260505225553 | 17 | 219 | 4.8 | 24.1 | 0.00 | 0.00 | 0.00 | 28 | 1011.2 |
| 20260505225100 | 17 | 222 | 6.4 | 19.3 | 0.00 | 0.00 | 0.00 | 28 | 1011.1 |
| 20260505224605 | 17 | 222 | 8.0 | 17.7 | 0.00 | 0.00 | 0.00 | 27 | 1011.3 |
| 20260505224007 | 17 | 280 | 8.0 | 20.9 | 0.00 | 0.00 | 0.00 | 27 | 1011.2 |
| 20260505223603 | 17 | 225 | 3.2 | 20.9 | 0.00 | 0.00 | 0.00 | 28 | 1011.3 |
| 20260505223015 | 17 | 167 | 8.0 | 16.1 | 0.00 | 0.00 | 0.00 | 29 | 1011.5 |
| 20260505222605 | 17 | 182 | 8.0 | 16.1 | 0.00 | 0.00 | 0.00 | 30 | 1011.7 |
| 20260505222005 | 17 | 272 | 4.8 | 17.7 | 0.00 | 0.00 | 0.00 | 30 | 1011.7 |
| 20260505221605 | 17 | 221 | 6.4 | 17.7 | 0.00 | 0.00 | 0.00 | 31 | 1011.8 |
| 20260505221104 | 17 | 236 | 11.3 | 19.3 | 0.00 | 0.00 | 0.00 | 30 | 1011.7 |
| 20260505220505 | 18 | 198 | 8.0 | 17.7 | 0.00 | 0.00 | 0.00 | 30 | 1011.8 |
| 20260505220056 | 18 | 187 | 3.2 | 14.5 | 0.00 | 0.00 | 0.00 | 30 | 1011.9 |
| 20260505215554 | 18 | 244 | 8.0 | 25.7 | 0.00 | 0.00 | 0.00 | 31 | 1011.9 |
| 20260505215100 | 18 | 250 | 9.7 | 27.4 | 0.00 | 0.00 | 0.00 | 30 | 1012.0 |
| 20260505214508 | 18 | 232 | 12.9 | 25.7 | 0.00 | 0.00 | 0.00 | 30 | 1012.0 |
| 20260505214008 | 18 | 219 | 11.3 | 22.5 | 0.00 | 0.00 | 0.00 | 30 | 1012.1 |
| 20260505213512 | 18 | 185 | 9.7 | 25.7 | 0.00 | 0.00 | 0.00 | 30 | 1012.0 |
| 20260505213003 | 18 | 188 | 16.1 | 25.7 | 0.00 | 0.00 | 0.00 | 29 | 1012.1 |
| 20260505212557 | 18 | 223 | 8.0 | 20.9 | 0.00 | 0.00 | 0.00 | 29 | 1012.2 |
| 20260505212001 | 18 | 180 | 14.5 | 20.9 | 0.00 | 0.00 | 0.00 | 28 | 1012.3 |
| 20260505211556 | 19 | 264 | 4.8 | 17.7 | 0.00 | 0.00 | 0.00 | 28 | 1012.4 |
| 20260505211103 | 19 | 196 | 9.7 | 19.3 | 0.00 | 0.00 | 0.00 | 27 | 1012.3 |